Kimball, NE

11:20 PM MDT on August 25, 2016 (GMT -0600)
Kimball Municipal-Arraj

Weather History for KIBM - September, 2012

Change the Weather History Date:

Sunday, September 30, 2012

  Actual Average (KSNY) Record (KSNY)
Temperature  
Mean Temperature 64 °F 57 °F  
Max Temperature 78 °F 72 °F 88 °F (1967)
Min Temperature 50 °F 41 °F 13 °F (1985)
Degree Days  
Heating Degree Days 1 9  
Month to date heating degree days 129  
Since 1 July heating degree days 140  
Cooling Degree Days 0 1  
Month to date cooling degree days 84  
Year to date cooling degree days 826  
Growing Degree Days 14 (Base 50)    
Moisture  
Dew Point 37 °F    
Average Humidity 42    
Maximum Humidity 74    
Minimum Humidity 19    
Precipitation  
Precipitation 0.00 in 0.03 in 0.48 in (2004)
Month to date precipitation 1.25  
Year to date precipitation 16.41  
Sea Level Pressure  
Sea Level Pressure 30.12 in    
Wind  
Wind Speed 11 mph (NW)    
Max Wind Speed 23 mph    
Max Gust Speed 30 mph    
Visibility 10 miles    
Events Rain    
T = Trace of Precipitation, MM = Missing Value Source: NWS Daily Summary

Daily Weather History Graph

Daily Weather History Graph

Search for Another Location

Airport or City:

Trip Planner

Search our weather history database for the weather conditions in past years. The results will help you decide how hot, cold, wet, or windy it might be!

Date:

Astronomy

Sep. 30, 2012 Rise Set
Actual Time 7:50 AM CDT 7:37 PM CDT
Civil Twilight 7:23 AM CDT 8:04 PM CDT
Nautical Twilight 6:51 AM CDT 8:36 PM CDT
Astronomical Twilight 6:19 AM CDT 9:09 PM CDT
Moon 7:41 PM CDT (9/30) 8:24 AM CDT (9/30)
Length of Visible Light 12h 41m
Length of Day
11h 46m
Full, 100% of the Moon is Illuminated
Sep 30
Full
Oct 8
Last Quarter
Oct 15
New
Oct 21
First Quarter
Oct 29
Full

Hourly Weather History & Observations

Time (CDT) Temp. Dew Point Humidity Pressure Visibility Wind Dir Wind Speed Gust Speed Precip Events Conditions
12:15 AM 56.7 °F 42.6 °F 59% 30.12 in 10.0 mi North 6.9 mph - N/A   Clear
12:55 AM 51.4 °F 43.5 °F 74% 30.12 in 10.0 mi WNW 6.9 mph - N/A   Clear
1:15 AM 50.5 °F 42.4 °F 74% 30.12 in 10.0 mi West 10.4 mph - N/A   Clear
1:35 AM 50.0 °F 41.9 °F 74% 30.12 in 10.0 mi WNW 6.9 mph - N/A   Clear
1:55 AM 50.2 °F 41.9 °F 73% 30.11 in 10.0 mi WNW 9.2 mph - N/A   Clear
2:15 AM 50.9 °F 42.3 °F 72% 30.11 in 10.0 mi West 6.9 mph - N/A   Clear
2:35 AM 52.9 °F 41.0 °F 64% 30.11 in 10.0 mi West 10.4 mph - N/A   Clear
2:55 AM 51.6 °F 41.0 °F 67% 30.11 in 10.0 mi West 9.2 mph - N/A   Scattered Clouds
3:15 AM 51.8 °F 40.8 °F 66% 30.10 in 10.0 mi West 5.8 mph - N/A   Mostly Cloudy
3:35 AM 52.2 °F 41.0 °F 66% 30.10 in 10.0 mi West 8.1 mph - N/A   Overcast
3:55 AM 51.8 °F 41.0 °F 67% 30.10 in 10.0 mi West 9.2 mph - N/A   Mostly Cloudy
4:15 AM 50.2 °F 41.4 °F 72% 30.09 in 10.0 mi West 5.8 mph - N/A   Scattered Clouds
4:35 AM 51.3 °F 40.6 °F 67% 30.09 in 10.0 mi WNW 11.5 mph - N/A   Clear
4:55 AM 51.1 °F 39.6 °F 65% 30.09 in 10.0 mi WNW 11.5 mph - N/A   Clear
5:15 AM 51.1 °F 38.8 °F 63% 30.09 in 10.0 mi WNW 9.2 mph - N/A   Clear
5:35 AM 52.7 °F 38.3 °F 58% 30.08 in 10.0 mi WNW 11.5 mph - N/A   Clear
5:55 AM 52.7 °F 38.1 °F 58% 30.09 in 10.0 mi NW 11.5 mph - N/A   Clear
6:15 AM 54.0 °F 37.8 °F 54% 30.09 in 10.0 mi West 10.4 mph - N/A   Clear
6:35 AM 52.7 °F 37.6 °F 56% 30.09 in 10.0 mi WNW 10.4 mph - N/A   Clear
6:55 AM 55.2 °F 37.6 °F 52% 30.09 in 10.0 mi WNW 13.8 mph 19.6 mph N/A   Scattered Clouds
7:15 AM 54.9 °F 38.3 °F 54% 30.09 in 10.0 mi NW 15.0 mph 20.7 mph N/A   Scattered Clouds
7:35 AM 54.7 °F 38.5 °F 54% 30.10 in 10.0 mi NW 12.7 mph 19.6 mph N/A   Clear
7:55 AM 53.6 °F 38.7 °F 57% 30.11 in 10.0 mi NW 12.7 mph 18.4 mph N/A   Clear
8:15 AM 53.4 °F 38.7 °F 57% 30.11 in 10.0 mi NW 9.2 mph - N/A   Clear
8:35 AM 53.8 °F 39.2 °F 58% 30.12 in 10.0 mi NW 10.4 mph 16.1 mph N/A   Clear
9:15 AM 58.8 °F 38.5 °F 47% 30.13 in 10.0 mi NW 16.1 mph 20.7 mph N/A   Clear
9:35 AM 61.7 °F 39.6 °F 44% 30.13 in 10.0 mi NW 12.7 mph 18.4 mph N/A   Mostly Cloudy
9:55 AM 62.6 °F 38.3 °F 41% 30.14 in 10.0 mi NW 13.8 mph 17.3 mph N/A   Mostly Cloudy
10:15 AM 62.1 °F 38.5 °F 42% 30.14 in 10.0 mi NW 12.7 mph - N/A   Mostly Cloudy
10:35 AM 68.0 °F 37.4 °F 33% 30.14 in 10.0 mi NNW 17.3 mph 24.2 mph N/A   Scattered Clouds
10:55 AM 69.3 °F 36.1 °F 30% 30.15 in 10.0 mi NNW 19.6 mph 29.9 mph N/A   Clear
11:15 AM 70.2 °F 35.6 °F 28% 30.15 in 10.0 mi NNW 20.7 mph 29.9 mph N/A   Clear
11:35 AM 71.8 °F 35.8 °F 27% 30.15 in 10.0 mi NNW 21.9 mph 28.8 mph N/A   Clear
11:55 AM 72.5 °F 34.9 °F 25% 30.15 in 10.0 mi NNW 23.0 mph 29.9 mph N/A   Scattered Clouds
12:15 PM 73.0 °F 34.9 °F 25% 30.15 in 10.0 mi North 23.0 mph 28.8 mph N/A   Scattered Clouds
12:35 PM 73.4 °F 33.6 °F 23% 30.15 in 10.0 mi NNW 21.9 mph 26.5 mph N/A   Scattered Clouds
12:55 PM 71.2 °F 34.5 °F 26% 30.15 in 10.0 mi NNW 20.7 mph 27.6 mph N/A   Scattered Clouds
1:15 PM 71.2 °F 34.9 °F 26% 30.15 in 10.0 mi North 16.1 mph 19.6 mph N/A   Scattered Clouds
1:35 PM 75.6 °F 34.0 °F 22% 30.14 in 10.0 mi North 18.4 mph 23.0 mph N/A   Clear
1:55 PM 74.7 °F 34.0 °F 23% 30.13 in 10.0 mi North 17.3 mph 27.6 mph N/A   Clear
2:15 PM 75.4 °F 35.2 °F 23% 30.12 in 10.0 mi North 19.6 mph 26.5 mph N/A   Clear
2:35 PM 77.0 °F 34.0 °F 21% 30.11 in 10.0 mi NNW 16.1 mph 24.2 mph N/A   Clear
2:55 PM 77.7 °F 32.4 °F 19% 30.11 in 10.0 mi NNW 18.4 mph 26.5 mph N/A   Scattered Clouds
3:15 PM 76.1 °F 32.2 °F 20% 30.10 in 10.0 mi North 13.8 mph 27.6 mph N/A   Scattered Clouds
3:35 PM 77.4 °F 32.0 °F 19% 30.10 in 10.0 mi NW 19.6 mph 26.5 mph N/A   Clear
3:55 PM 78.1 °F 32.0 °F 19% 30.10 in 10.0 mi NNW 18.4 mph 24.2 mph N/A   Scattered Clouds
4:15 PM 76.5 °F 31.8 °F 20% 30.10 in 10.0 mi NNW 16.1 mph 26.5 mph N/A   Scattered Clouds
4:35 PM 77.7 °F 32.0 °F 19% 30.10 in 10.0 mi North 17.3 mph - N/A   Scattered Clouds
4:55 PM 75.9 °F 32.2 °F 20% 30.10 in 10.0 mi NNW 18.4 mph 25.3 mph N/A   Scattered Clouds
5:15 PM 74.1 °F 32.0 °F 21% 30.10 in 10.0 mi North 17.3 mph - N/A   Clear
5:35 PM 72.7 °F 32.9 °F 23% 30.10 in 10.0 mi North 11.5 mph 25.3 mph N/A   Clear
5:55 PM 73.2 °F 34.2 °F 24% 30.10 in 10.0 mi NW 12.7 mph 17.3 mph N/A   Clear
6:15 PM 72.0 °F 32.9 °F 24% 30.10 in 10.0 mi NNW 8.1 mph 15.0 mph N/A   Clear
6:35 PM 70.9 °F 33.1 °F 25% 30.10 in 10.0 mi NW 9.2 mph - N/A   Clear
7:15 PM 68.4 °F 33.8 °F 28% 30.11 in 10.0 mi NNW 5.8 mph - N/A   Clear
7:35 PM 65.7 °F 33.1 °F 30% 30.11 in 10.0 mi NNW 6.9 mph - N/A   Clear
7:55 PM 63.3 °F 32.7 °F 32% 30.11 in 10.0 mi NNW 5.8 mph - N/A   Clear
8:15 PM 61.5 °F 32.9 °F 34% 30.12 in 10.0 mi NNW 5.8 mph - N/A   Clear
8:35 PM 59.7 °F 33.1 °F 37% 30.12 in 10.0 mi NW 6.9 mph - N/A   Clear
9:15 PM 57.2 °F 33.8 °F 41% 30.13 in 10.0 mi NW 6.9 mph - N/A   Clear
9:35 PM 55.4 °F 34.3 °F 45% 30.14 in 10.0 mi NW 5.8 mph - N/A   Clear
9:55 PM 55.6 °F 35.2 °F 46% 30.15 in 10.0 mi NW 5.8 mph - N/A   Scattered Clouds
10:15 PM 59.7 °F 34.5 °F 39% 30.16 in 10.0 mi NNW 8.1 mph - N/A   Scattered Clouds
10:35 PM 60.6 °F 33.8 °F 37% 30.16 in 10.0 mi North 9.2 mph - N/A   Scattered Clouds
10:55 PM 59.2 °F 34.7 °F 40% 30.16 in 10.0 mi NNE 6.9 mph - N/A   Scattered Clouds
11:15 PM 60.3 °F 34.9 °F 39% 30.17 in 10.0 mi North 8.1 mph - N/A   Mostly Cloudy
11:35 PM 60.8 °F 39.2 °F 45% 30.19 in 10.0 mi North 8.1 mph - N/A Rain Light Rain
11:55 PM 60.8 °F 38.7 °F 44% 30.19 in 10.0 mi NNE 5.8 mph - N/A   Overcast